User: anonymous   Login
Location: Unspecified
(0.0000°N, 0.0000°E)
Time: 09:23:15
(UTC+01:00)
Language:

Cosmos 1953 Rocket - Orbit

View from above orbital plane
View from above orbital plane
View from above satellite
View from above satellite

Ground track
Ground track

The orbit data is extracted from the following two-line orbital elements,

1 19211U 88050B   15025.82533815  .00000224  00000-0  24666-4 0  4602
2 19211 082.5283 299.0856 0023638 114.0219 306.3753 14.82624344437361
Epoch (UTC): 25 January 2015 19:48:29
Eccentricity: 0.0023638
inclination: 82.5283°
perigee height: 604 km
apogee height: 637 km
right ascension of ascending node: 299.0856°
argument of perigee: 114.0219°
revolutions per day: 14.82624344
mean anomaly at epoch: 306.3753°
orbit number at epoch: 43736

The dashed part of the orbit path shows where the satellite is in the earth's shadow,  

DLR